OBJECT AH, 62640

Orbit data source: Space-Track

You're viewing an Uncataloged Satellite

Recently launched and/or uncataloged satellites may have evolving metadata. Metadata may include but not limited to: Owner, Maufacturer, Bus, Motor, and Mission.

OBJECT AH, 62640 is a satellite in SSO that was launched on Tue, 14 Jan 2025 UTC via an FALCON 9 launch vehicle from the Air Force Western Test Range (AFWTR). Unknown objects in Earth's orbit typically refer to objects detected orbiting the Earth but have not yet been identified or cataloged. These objects could be anything from previously untracked satellites, spent rocket stages, debris from satellite collisions, or even natural meteoroids temporarily captured by Earth's gravity.

Loading next visibility...
Identifier
62640, 2025-009AH
Orbit
SSO
Last TLE update
15 hours ago
Origin
Flag of TBDUZMA/URUGUS (TBD)
Manufacturer
URUGUS S.A.
Mission
Operational Commercial Imaging
Bus & Motor
NEWSAT V, Unknown motor
Mass
41.5 kg wet, 38.5 kg dry
Launch date (UTC)
2025-01-14 (4 months ago)
Launch vehicle
FALCON 9
Launch site
Air Force Western Test Range (AFWTR)
Object type
Unknown
Shape & HBR
Box, 0.813 m
Radar Cross Section
0.542 m², Medium (>0.1 m² and < 1m²)

Expand to show TLE details & history

TLE from 15 hours ago
0 OBJECT AH
1 62640U 25009AH  25128.67499058  .00007718  00000-0  35579-3 0  9995
2 62640  97.4263 209.5151 0001058 343.1732  16.9468 15.20538216 17286
Epoch: 2025-05-08T16:11Z
Definitive object data (Epoch: 2025-05-08T16:11:59.186Z)
Latitude
-0.00001°
Longitude
99.77641°
Altitude
506.61 km
Speed
7.611 km/s
True Right ascension
13h 58m 03s
True Declination
0° 00' 00"
Sunlit
Object was in full shadow at TLE epoch
Visualization TLE readout
Latitude
41.43934°
Longitude
-73.04398°
Altitude
510.953 km
Speed
7.612 km/s
Apparent Right ascension
02h 47m 52s
Apparent Declination
2° 39' 50"
Sunlit
Object is in daylight
Visualization observer readout
Local Sidereal Time
15:10:08
Azimuth
8.187° NNE
Elevation
-47.115°
Doppler factor
1
Orbital elements
Apogee altitude
501.91 km
Perigee altitude
500.454 km
Semi-major axis
6,879.319 km
Eccentricity
0.0001058
Inclination
97.4263°
RAAN
209.5151°
Arg. of periapsis
343.1732°
True anomaly
16.95033°
Mean anomaly
16.9468°
Eccentric anomaly
16.94857°
Mean motion
3.80386 °/min
BSTAR
0.00035579
Orbital period
94.64 mins
Loading maneuver chart data...
Loading SW <> Apogee altitude chart data...
Loading historical data...
Loading historical data...
Loading historical data...
Loading historical data...
Loading historical data...
Loading historical data...
Loading historical data...

OBJECT AH Visibility forecast

Observer location: undefined°, undefined°

Span
Click to sort rows by Start time (UTC) header in descending order
Start Az.
Max El. time (UTC)
Max El. Az.
Max El.
End time (UTC)
End Az.
6 mins2025-05-09 18:02:12.642Z21.418° NNE2025-05-09 18:05:12.642Z116.343° SE41.306°2025-05-09 18:08:12.642Z181.103° SSW
4 mins2025-05-10 04:41:12.642Z105.919° ESE2025-05-10 04:43:12.642Z57.631° ENE21.524°2025-05-10 04:45:12.642Z20.974° NNE
4 mins2025-05-10 06:15:12.642Z237.659° WSW2025-05-10 06:16:12.642Z258.624° W18.547°2025-05-10 06:19:12.642Z313.507° NW
|